Flag for France Weather past 2 weeks in Le Havre, France

Now
39 °F

Light rain. Partly cloudy.


Feels Like: 29 °F
Forecast: 31 / 45 °F
Wind: 23 mph from North

Location: La Heve

Current Time: Dec 28, 2014 at 4:10:35 AM

Latest Report: Dec 28, 2014 at 3:30 AM


Visibility: N/A

Pressure: 29.92 "Hg

Humidity: 75%

Dew point: 32 °F

Location of Le HavreLocation

Historic Weather in Le Havre — Graph

°F

Le Havre temperature yesterday

Maximum temperature yesterday: 50 °F (at 12:00 AM)
Minimum temperature yesterday: 41 °F (at 7:30 PM)
Average temperature yesterday: 44 °F

Past Weeks' High & Low Weather Summary

 TemperatureHumidityPressure
High54 °F (Dec 17, 6:00 PM)100% (Dec 15, 6:30 PM)30.54 "Hg (Dec 15, 6:30 PM)
Low37 °F (Dec 13, 6:00 PM)58% (Dec 25, 12:00 AM)29.62 "Hg (Dec 27, 4:00 AM)
Average47 °F82%30.11 "Hg
* Reported Dec 13 2:00 AM — Dec 28 2:30 AM, Le Havre, Weather by CustomWeather, © 2014

Note: Actual official high and low records may vary slightly from our data, if they occured in-between our weather recording intervals... More about our weather records

Advertising

Le Havre weather history for previous 24 hours

 ConditionsComfort  
Time TempWeatherWind HumidityBarometerVisibility
2:30 AM
Dec 28
39 °FLight rain. Partly cloudy.15 mph70%29.89 "HgN/A
2:00 AM39 °FPassing clouds.17 mph65%29.86 "HgN/A
1:30 AM39 °FPassing clouds.22 mph75%29.86 "HgN/A
1:00 AM39 °FPartly cloudy.23 mph75%29.83 "HgN/A
12:30 AM41 °FPassing clouds.22 mph70%29.83 "HgN/A
12:00 AM41 °FPartly cloudy.25 mph70%29.83 "HgN/A
11:30 PM
Dec 27
41 °FPassing clouds.20 mph76%29.80 "HgN/A
11:00 PM41 °FPassing clouds.20 mph76%29.80 "HgN/A
10:30 PM41 °FPassing clouds.17 mph76%29.77 "HgN/A
10:00 PM41 °FPassing clouds.18 mph76%29.77 "HgN/A
9:30 PM41 °FPartly cloudy.20 mph76%29.77 "HgN/A
9:00 PM41 °FPassing clouds.18 mph70%29.74 "HgN/A
8:30 PM41 °FPassing clouds.20 mph76%29.74 "HgN/A
8:00 PM41 °FPartly cloudy.21 mph70%29.74 "HgN/A
7:30 PM41 °FMostly cloudy.21 mph76%29.74 "HgN/A
7:00 PM43 °FPartly cloudy.22 mph66%29.74 "HgN/A
6:30 PM43 °FMostly cloudy.23 mph66%29.74 "HgN/A
6:00 PM43 °FPartly cloudy.24 mph66%29.74 "HgN/A
5:30 PM43 °FPartly cloudy.23 mph66%29.74 "HgN/A
5:00 PM43 °FPartly sunny.23 mph71%29.74 "HgN/A
4:30 PM43 °FPartly sunny.24 mph71%29.74 "HgN/A
4:00 PM43 °FBroken clouds.24 mph71%29.74 "HgN/A
3:30 PM43 °FPartly sunny.24 mph71%29.74 "HgN/A
3:00 PM43 °FMostly cloudy.25 mph71%29.74 "HgN/A
2:30 PM43 °FMostly cloudy.24 mph76%29.77 "HgN/A
2:00 PM43 °FMostly cloudy.28 mph71%29.77 "HgN/A
1:30 PM43 °FMostly cloudy.26 mph71%29.77 "HgN/A
1:00 PM43 °FPartly sunny.28 mph71%29.77 "HgN/A
12:30 PM43 °FMostly cloudy.28 mph71%29.77 "HgN/A
12:00 PM43 °FMostly cloudy.31 mph71%29.77 "HgN/A
11:30 AM43 °FOvercast.32 mph71%29.77 "HgN/A
11:00 AM43 °FOvercast.32 mph71%29.77 "HgN/A
10:30 AM43 °FPartly sunny.35 mph71%29.77 "HgN/A
10:00 AM43 °FOvercast.33 mph71%29.77 "HgN/A
9:30 AM43 °FMostly cloudy.36 mph71%29.74 "HgN/A
9:00 AM43 °FMostly cloudy.36 mph76%29.74 "HgN/A
8:30 AM43 °FMostly cloudy.37 mph76%29.71 "HgN/A
8:00 AM43 °FMostly cloudy.38 mph76%29.71 "HgN/A
7:30 AM43 °FMostly cloudy.37 mph76%29.68 "HgN/A
7:00 AM43 °FMostly cloudy.38 mph76%29.68 "HgN/A
6:30 AM43 °FMostly cloudy.37 mph71%29.68 "HgN/A
6:00 AM43 °FMostly cloudy.33 mph71%29.68 "HgN/A
5:30 AM43 °FMostly cloudy.37 mph66%29.65 "HgN/A
4:30 AM45 °FDrizzle. Mostly cloudy.36 mph76%29.65 "HgN/A
4:00 AM46 °FPartly cloudy.38 mph76%29.62 "Hg6 mi
Weather by CustomWeather, © 2014

See weather overviewHow to use our weather pages